This is the latest recevied weather packets stored in our database for station/object WB7AAV. If no packets are shown the sender has not sent any weather packets the latest 10 day(s).
| Time | Temp. | Humidity | Pressure | Rain* | Wind** | Luminosity | Snow |
|---|---|---|---|---|---|---|---|
| 1777760520 | 19.44° C | 16% | 1018.8 hPa | 0 mm | - | - | - |
| 1777760402 | 20° C | 17% | 1018.9 hPa | 0 mm | - | - | - |
| 1777760280 | 20° C | 21% | 1018.8 hPa | 0 mm | - | - | - |
| 1777760161 | 20° C | 19% | 1018.8 hPa | 0 mm | - | - | - |
| 1777760042 | 20° C | 18% | 1018.9 hPa | 0 mm | - | - | - |
| 1777759920 | 20° C | 17% | 1018.9 hPa | 0 mm | - | - | - |
| 1777759801 | 20° C | 18% | 1018.9 hPa | 0 mm | - | - | - |
| 1777759681 | 20° C | 18% | 1018.9 hPa | 0 mm | - | - | - |
| 1777759560 | 20° C | 18% | 1018.9 hPa | 0 mm | - | - | - |
| 1777759440 | 20° C | 18% | 1018.9 hPa | 0 mm | - | - | - |
| 1777759320 | 20° C | 18% | 1018.9 hPa | 0 mm | - | - | - |
| 1777759202 | 19.44° C | 21% | 1018.9 hPa | 0 mm | - | - | - |
| 1777759078 | 18.89° C | 20% | 1019 hPa | 0 mm | - | - | - |
| 1777758958 | 18.89° C | 16% | 1019.2 hPa | 0 mm | - | - | - |
| 1777758900 | 18.89° C | 17% | 1019.2 hPa | 0 mm | - | - | - |
| 1777758718 | 18.89° C | 16% | 1019.3 hPa | 0 mm | - | - | - |
| 1777758599 | 18.89° C | 18% | 1019.2 hPa | 0 mm | - | - | - |
| 1777758479 | 18.89° C | 17% | 1019.3 hPa | 0 mm | - | - | - |
| 1777758358 | 18.89° C | 19% | 1019.4 hPa | 0 mm | - | - | - |
| 1777758240 | 18.89° C | 16% | 1019.4 hPa | 0 mm | - | - | - |
| 1777758118 | 18.89° C | 18% | 1019.4 hPa | 0 mm | - | - | - |
| 1777758000 | 18.33° C | 18% | 1019.5 hPa | 0 mm | - | - | - |
| 1777757876 | 18.33° C | 15% | 1019.5 hPa | 0 mm | - | - | - |
| 1777757758 | 18.89° C | 16% | 1019.5 hPa | 0 mm | - | - | - |
| 1777757638 | 18.89° C | 16% | 1019.6 hPa | 0 mm | - | - | - |
* Rain latest hour (hover to see other rain measurements)
** Current wind speed in m/s (hover to see current wind gust speed)